Date String (YYYY-MM-DD hh:mm:ss) UTC,Instrument flags,Ambient pressure (hPa),Sample flow (lpm),Bypass flow (lpm),Sample temperature (°C),Ambient temperature (°C),ASC tube jacket temperature (°C),LED temperature (°C),Box temperature (°C),Sample RH (%),Span deviation,Mass concentration (μg/m³),Mass concentration (μg/m³),Mass concentration (μg/m³)
DateTimeUTC,F1_M11,P_M11,Q1_M11,Q2_M11,T1_M11,T2_M11,T3_M11,T4_M11,T5_M11,U1_M11,ZSPAN_M11,X0_M11,X2_M11,X1_M11
2022-05-23 20:00:00,,0824.6,5.00,0.00,29.5,28.6,00.0,38.4,31.3,15.8,0000.0,0005.53,0003.57,0003.33
2022-05-23 20:01:00,,0824.6,4.99,0.00,29.5,28.6,00.0,38.4,31.3,16.4,0000.0,0005.46,0003.56,0003.33
2022-05-23 20:02:00,,0824.6,4.99,0.00,29.5,28.6,00.0,38.4,31.4,16.6,0000.0,0005.39,0003.54,0003.32
2022-05-23 20:03:00,,0824.6,5.00,0.00,29.5,28.6,00.0,38.4,31.4,16.3,0000.0,0005.26,0003.51,0003.30
2022-05-23 20:04:00,,0824.6,4.99,0.00,29.5,28.6,00.0,38.4,31.4,15.9,0000.0,0006.90,0003.48,0003.28
2022-05-23 20:05:00,,0824.7,5.00,0.00,29.5,28.6,00.0,38.4,31.4,15.6,0000.0,0006.96,0003.47,0003.26
2022-05-23 20:06:00,,0824.6,5.00,0.00,29.5,28.6,00.0,38.4,31.4,15.3,0000.0,0007.06,0003.48,0003.26
2022-05-23 20:07:00,,0824.6,5.00,0.00,29.6,28.6,00.0,38.4,31.4,15.3,0000.0,0007.08,0003.49,0003.27
2022-05-23 20:08:00,,0824.6,5.00,0.00,29.6,28.7,00.0,38.4,31.4,15.1,0000.0,0007.81,0003.54,0003.27
2022-05-23 20:09:00,,0824.6,4.99,0.00,29.6,28.7,00.0,38.4,31.4,15.1,0000.0,0008.23,0003.56,0003.29
2022-05-23 20:10:00,,0824.6,5.00,0.00,29.6,28.7,00.0,38.5,31.4,15.2,0000.0,0008.25,0003.58,0003.30
2022-05-23 20:11:00,,0824.6,4.99,0.00,29.6,28.7,00.0,38.5,31.4,15.3,0000.0,0008.37,0003.60,0003.28
2022-05-23 20:12:00,,0824.7,4.99,0.00,29.6,28.7,00.0,38.5,31.5,15.4,0000.0,0008.43,0003.59,0003.26
2022-05-23 20:13:00,,0824.6,5.00,0.00,29.6,28.8,00.0,38.5,31.5,15.4,0000.0,0008.33,0003.57,0003.25
2022-05-23 20:14:00,,0824.7,5.01,0.00,29.6,28.8,00.0,38.5,31.5,15.5,0000.0,0008.26,0003.54,0003.24
2022-05-23 20:15:00,,0824.6,5.00,0.00,29.6,28.8,00.0,38.5,31.5,15.3,0000.0,0007.44,0003.57,0003.25
2022-05-23 20:16:00,,0824.7,5.00,0.00,29.7,28.8,00.0,38.5,31.5,15.3,0000.0,0007.25,0003.59,0003.28
2022-05-23 20:17:00,,0824.6,5.00,0.00,29.7,28.8,00.0,38.5,31.5,15.4,0000.0,0007.17,0003.56,0003.27
2022-05-23 20:18:00,,0824.6,5.01,0.00,29.7,28.8,00.0,38.5,31.5,15.4,0000.0,0007.46,0003.55,0003.26
2022-05-23 20:19:00,,0824.5,5.00,0.00,29.7,28.8,00.0,38.6,31.5,15.7,0000.0,0006.74,0003.54,0003.27
2022-05-23 20:20:00,,0824.5,5.00,0.00,29.7,28.8,00.0,38.6,31.5,15.8,0000.0,0005.63,0003.50,0003.25
2022-05-23 20:21:00,,0824.4,5.01,0.00,29.7,28.8,00.0,38.6,31.5,15.7,0000.0,0005.47,0003.48,0003.23
2022-05-23 20:22:00,,0824.4,5.01,0.00,29.7,28.8,00.0,38.6,31.6,15.4,0000.0,0005.22,0003.44,0003.22
2022-05-23 20:23:00,,0824.4,4.99,0.00,29.7,28.8,00.0,38.6,31.6,15.4,0000.0,0005.05,0003.42,0003.22
2022-05-23 20:24:00,,0824.4,5.00,0.00,29.7,28.8,00.0,38.6,31.6,15.1,0000.0,0005.30,0003.45,0003.22
2022-05-23 20:25:00,,0824.4,5.01,0.00,29.7,28.9,00.0,38.6,31.6,14.9,0000.0,0006.32,0003.48,0003.22
2022-05-23 20:26:00,,0824.4,5.00,0.00,29.8,28.9,00.0,38.6,31.6,15.0,0000.0,0006.20,0003.43,0003.19
2022-05-23 20:27:00,,0824.3,5.00,0.00,29.8,28.9,00.0,38.6,31.6,14.9,0000.0,0006.03,0003.39,0003.16
2022-05-23 20:28:00,,0824.4,4.99,0.00,29.8,28.9,00.0,38.6,31.6,15.3,0000.0,0006.04,0003.40,0003.15
2022-05-23 20:29:00,,0824.4,4.99,0.00,29.8,28.9,00.0,38.7,31.6,15.1,0000.0,0005.68,0003.41,0003.15
2022-05-23 20:30:00,,0824.3,5.00,0.00,29.8,28.9,00.0,38.7,31.6,15.1,0000.0,0005.57,0003.37,0003.13
2022-05-23 20:31:00,,0824.3,5.00,0.00,29.8,28.9,00.0,38.7,31.6,15.1,0000.0,0005.93,0003.39,0003.14
2022-05-23 20:32:00,,0824.4,5.00,0.00,29.8,28.9,00.0,38.7,31.6,14.6,0000.0,0006.12,0003.40,0003.14
2022-05-23 20:33:00,,0824.4,5.01,0.00,29.8,28.9,00.0,38.7,31.6,14.6,0000.0,0006.15,0003.39,0003.12
2022-05-23 20:34:00,,0824.4,5.00,0.00,29.8,28.9,00.0,38.7,31.7,14.3,0000.0,0006.24,0003.37,0003.08
2022-05-23 20:35:00,,0824.4,4.99,0.00,29.8,28.9,00.0,38.7,31.7,14.2,0000.0,0006.19,0003.34,0003.05
2022-05-23 20:36:00,,0824.4,5.00,0.00,29.8,28.9,00.0,38.7,31.7,14.5,0000.0,0005.23,0003.33,0003.05
2022-05-23 20:37:00,,0824.4,5.02,0.00,29.8,28.9,00.0,38.7,31.7,14.5,0000.0,0005.25,0003.34,0003.02
2022-05-23 20:38:00,,0824.4,5.01,0.00,29.8,28.9,00.0,38.7,31.7,14.5,0000.0,0005.26,0003.32,0002.98
2022-05-23 20:39:00,,0824.4,5.00,0.00,29.8,28.9,00.0,38.7,31.7,13.9,0000.0,0005.18,0003.29,0002.90
2022-05-23 20:40:00,,0824.4,5.00,0.00,29.8,28.9,00.0,38.7,31.7,13.7,0000.0,0004.94,0003.22,0002.82
2022-05-23 20:41:00,,0824.3,4.99,0.00,29.9,28.9,00.0,38.8,31.7,14.1,0000.0,0004.91,0003.18,0002.74
2022-05-23 20:42:00,,0824.3,4.99,0.00,29.9,28.9,00.0,38.8,31.7,14.1,0000.0,0004.72,0003.14,0002.67
2022-05-23 20:43:00,,0824.3,4.99,0.00,29.9,28.9,00.0,38.8,31.7,13.8,0000.0,0004.34,0003.07,0002.58
2022-05-23 20:44:00,,0824.3,5.00,0.00,29.9,28.9,00.0,38.8,31.7,13.8,0000.0,0004.24,0002.99,0002.51
2022-05-23 20:45:00,,0824.3,4.99,0.00,29.9,28.9,00.0,38.8,31.7,13.4,0000.0,0004.28,0002.96,0002.47
2022-05-23 20:46:00,,0824.3,5.01,0.00,29.9,28.9,00.0,38.8,31.7,13.6,0000.0,0004.11,0002.93,0002.44
2022-05-23 20:47:00,,0824.3,4.99,0.00,29.9,28.9,00.0,38.8,31.7,13.7,0000.0,0004.09,0002.86,0002.40
2022-05-23 20:48:00,,0824.3,5.01,0.00,29.9,28.9,00.0,38.8,31.7,14.0,0000.0,0003.90,0002.78,0002.38
2022-05-23 20:49:00,,0824.3,5.00,0.00,29.9,28.9,00.0,38.8,31.7,14.2,0000.0,0003.78,0002.75,0002.38
2022-05-23 20:50:00,,0824.3,4.99,0.00,29.9,28.9,00.0,38.8,31.7,13.7,0000.0,0003.73,0002.71,0002.38
2022-05-23 20:51:00,,0824.2,5.01,0.00,29.9,29.0,00.0,38.8,31.7,13.7,0000.0,0003.75,0002.70,0002.36
2022-05-23 20:52:00,,0824.2,5.00,0.00,29.9,29.0,00.0,38.8,31.7,13.3,0000.0,0003.69,0002.67,0002.34
2022-05-23 20:53:00,,0824.2,4.99,0.00,29.9,29.0,00.0,38.8,31.7,13.8,0000.0,0003.56,0002.61,0002.31
2022-05-23 20:54:00,,0824.2,5.01,0.00,29.9,29.0,00.0,38.8,31.7,14.3,0000.0,0003.55,0002.61,0002.29
2022-05-23 20:55:00,,0824.2,4.99,0.00,29.9,29.0,00.0,38.8,31.7,13.9,0000.0,0003.51,0002.59,0002.28
2022-05-23 20:56:00,,0824.2,5.01,0.00,29.9,29.0,00.0,38.8,31.8,13.4,0000.0,0003.48,0002.59,0002.28
2022-05-23 20:57:00,,0824.2,5.00,0.00,30.0,29.0,00.0,38.9,31.8,13.6,0000.0,0003.48,0002.60,0002.27
2022-05-23 20:58:00,,0824.3,5.00,0.00,30.0,29.0,00.0,38.9,31.8,13.3,0000.0,0003.45,0002.60,0002.25
2022-05-23 20:59:00,,0824.3,4.99,0.00,30.0,29.0,00.0,38.9,31.8,13.2,0000.0,0003.48,0002.55,0002.19
